| time (UTC) | temp F | wind direction | speed knots | gust knots | rain 1hr in | rain 24hr in | rain mn in | humidity % | barometer mb |
| 20260903073419 | 70 | 248 | 0.0 | 2.6 | 0.10 | 1.51 | 0.15 | 93 | 1015.0 |
| 20260903072913 | 70 | 45 | 0.0 | 1.7 | 0.15 | 1.51 | 0.15 | 93 | 1014.9 |
| 20260903072408 | 70 | 292 | 0.0 | 1.7 | 0.14 | 1.50 | 0.14 | 93 | 1014.8 |
| 20260903072132 | 70 | 263 | 0.0 | 2.6 | 0.13 | 1.49 | 0.13 | 93 | 1014.9 |
| 20260903071355 | 70 | 283 | 0.0 | 2.6 | 0.13 | 1.49 | 0.13 | 93 | 1014.7 |
| 20260903070848 | 70 | 309 | 0.0 | 1.7 | 0.13 | 1.49 | 0.13 | 93 | 1014.7 |
| 20260903070343 | 70 | 214 | 0.0 | 0.0 | 0.13 | 1.49 | 0.13 | 93 | 1014.9 |
| 20260903065836 | 69 | 194 | 0.9 | 4.3 | 0.13 | 1.49 | 0.13 | 93 | 1015.0 |
| 20260903065331 | 69 | 154 | 1.7 | 8.7 | 0.13 | 1.49 | 0.13 | 93 | 1015.0 |
| 20260903064825 | 69 | 166 | 3.5 | 12.2 | 0.13 | 1.49 | 0.13 | 93 | 1015.3 |
| 20260903064319 | 69 | 191 | 5.2 | 14.8 | 0.12 | 1.48 | 0.12 | 92 | 1016.0 |
| 20260903063812 | 69 | 229 | 7.0 | 16.5 | 0.09 | 1.45 | 0.10 | 91 | 1016.2 |
| 20260903063308 | 70 | 297 | 6.1 | 16.5 | 0.02 | 1.38 | 0.02 | 92 | 1015.8 |
| 20260903062801 | 72 | 321 | 2.6 | 11.3 | 0.00 | 1.36 | 0.00 | 93 | 1014.9 |
| 20260903062255 | 72 | 304 | 0.9 | 4.3 | 0.00 | 1.36 | 0.00 | 94 | 1015.1 |
| 20260903061748 | 72 | 264 | 0.0 | 0.9 | 0.00 | 1.36 | 0.00 | 94 | 1014.8 |
| 20260903061242 | 72 | 139 | 0.0 | 0.0 | 0.00 | 1.36 | 0.00 | 93 | 1014.8 |
| 20260903060737 | 71 | 138 | 0.0 | 0.0 | 0.00 | 1.36 | 0.00 | 93 | 1014.6 |
| 20260903060230 | 71 | 138 | 0.0 | 0.0 | 0.00 | 1.36 | 0.00 | 93 | 1014.8 |
| 20260903055725 | 71 | 138 | 0.0 | 0.0 | 0.00 | 1.36 | 0.00 | 93 | 1014.7 |
| 20260903055219 | 71 | 138 | 0.0 | 0.0 | 0.00 | 1.36 | 0.00 | 93 | 1014.8 |
| 20260903054712 | 71 | 138 | 0.0 | 0.0 | 0.00 | 1.36 | 0.00 | 93 | 1014.9 |
| 20260903054207 | 71 | 138 | 0.0 | 0.0 | 0.00 | 1.36 | 0.00 | 93 | 1015.0 |
| 20260903053701 | 71 | 138 | 0.0 | 0.0 | 0.00 | 1.36 | 0.00 | 93 | 1015.0 |
| 20260903053155 | 71 | 138 | 0.0 | 0.9 | 0.00 | 1.36 | 0.00 | 93 | 1015.1 |
| 20260903052649 | 71 | 165 | 0.0 | 0.9 | 0.00 | 1.36 | 0.00 | 93 | 1015.2 |
| 20260903052413 | 71 | 58 | 0.0 | 0.9 | 0.00 | 1.36 | 0.00 | 93 | 1015.1 |
| 20260903051637 | 71 | 52 | 0.0 | 0.9 | 0.00 | 1.36 | 0.00 | 93 | 1014.9 |
| 20260903051131 | 71 | 55 | 0.0 | 2.6 | 0.00 | 1.36 | 0.00 | 93 | 1014.9 |
| 20260903050625 | 71 | 302 | 0.0 | 2.6 | 0.00 | 1.36 | 0.00 | 93 | 1015.1 |
| 20260903050125 | 71 | 278 | 0.9 | 3.5 | 0.00 | 1.36 | 0.00 | 93 | 1014.9 |
| 20260903045629 | 71 | 241 | 0.9 | 5.2 | 0.01 | 1.36 | 0.00 | 93 | 1015.2 |
| 20260903045625 | 71 | 227 | 0.9 | 4.3 | 0.00 | 1.36 | 0.00 | 93 | 1015.3 |
| 20260903044624 | 71 | 226 | 0.9 | 5.2 | 0.04 | 1.36 | 0.00 | 93 | 1015.2 |
| 20260903044122 | 71 | 230 | 0.9 | 7.0 | 0.06 | 1.36 | 0.00 | 93 | 1015.2 |
| 20260903043623 | 71 | 231 | 1.7 | 7.0 | 0.08 | 1.36 | 0.00 | 93 | 1015.1 |
| 20260903043122 | 71 | 262 | 2.6 | 7.0 | 0.10 | 1.36 | 0.00 | 93 | 1015.4 |
| 20260903042622 | 71 | 247 | 2.6 | 6.1 | 0.11 | 1.36 | 0.00 | 93 | 1015.1 |
| 20260903042121 | 70 | 251 | 1.7 | 5.2 | 0.12 | 1.36 | 0.00 | 93 | 1015.2 |
| 20260903041859 | 70 | 267 | 0.0 | 2.6 | 0.37 | 1.36 | 0.00 | 92 | 1014.9 |
| 20260903041623 | 70 | 282 | 0.9 | 3.5 | 0.23 | 1.36 | 0.00 | 92 | 1015.1 |
| 20260903040623 | 70 | 159 | 0.0 | 1.7 | 0.58 | 1.36 | 0.00 | 92 | 1015.2 |
| 20260903040120 | 70 | 105 | 0.9 | 5.2 | 0.75 | 1.36 | 0.00 | 92 | 1015.4 |
| 20260903035620 | 70 | 309 | 0.9 | 5.2 | 0.93 | 1.36 | 1.36 | 92 | 1015.7 |
| 20260903035119 | 70 | 158 | 0.9 | 3.5 | 1.20 | 1.35 | 1.36 | 92 | 1015.0 |
| 20260903034617 | 71 | 247 | 2.6 | 7.0 | 1.32 | 1.32 | 1.33 | 92 | 1015.3 |
| 20260903034115 | 71 | 240 | 3.5 | 8.7 | 1.30 | 1.30 | 1.30 | 91 | 1015.7 |
| 20260903033616 | 71 | 231 | 3.5 | 10.4 | 1.28 | 1.28 | 1.28 | 91 | 1015.7 |
| 20260903033342 | 71 | 244 | 4.3 | 10.4 | 1.26 | 1.26 | 1.26 | 91 | 1015.9 |
| 20260903032604 | 72 | 231 | 4.3 | 9.6 | 1.25 | 1.25 | 1.25 | 91 | 1015.7 |
| 20260903032332 | 72 | 269 | 6.1 | 18.2 | 1.24 | 1.24 | 1.24 | 90 | 1015.4 |
| 20260903031600 | 72 | 238 | 7.8 | 18.2 | 1.13 | 1.13 | 1.13 | 89 | 1016.1 |
| 20260903031101 | 74 | 200 | 6.1 | 16.5 | 0.96 | 0.96 | 0.98 | 87 | 1016.2 |
| 20260903030558 | 74 | 290 | 2.6 | 10.4 | 0.78 | 0.78 | 0.78 | 86 | 1014.9 |
| 20260903030331 | 75 | 76 | 2.6 | 9.6 | 0.56 | 0.56 | 0.60 | 84 | 1014.5 |
| 20260903025559 | 77 | 250 | 2.6 | 9.6 | 0.37 | 0.37 | 0.41 | 80 | 1015.0 |
| 20260903025055 | 78 | 76 | 0.9 | 5.2 | 0.07 | 0.07 | 0.12 | 77 | 1014.7 |
| 20260903024554 | 79 | 88 | 1.7 | 8.7 | 0.00 | 0.00 | 0.00 | 75 | 1014.1 |
| 20260903024054 | 79 | 58 | 2.6 | 10.4 | 0.00 | 0.00 | 0.00 | 74 | 1013.6 |
| 20260903023554 | 81 | 65 | 1.7 | 10.4 | 0.00 | 0.00 | 0.00 | 71 | 1013.3 |
| 20260903023055 | 83 | 37 | 1.7 | 7.8 | 0.00 | 0.00 | 0.00 | 69 | 1013.5 |
| 20260903022553 | 85 | 53 | 1.7 | 7.8 | 0.00 | 0.00 | 0.00 | 65 | 1013.4 |
| 20260903022054 | 87 | 65 | 0.9 | 7.8 | 0.00 | 0.00 | 0.00 | 64 | 1013.6 |
| 20260903021553 | 88 | 302 | 0.9 | 4.3 | 0.00 | 0.00 | 0.00 | 66 | 1013.6 |
| 20260903021053 | 88 | 269 | 0.9 | 4.3 | 0.00 | 0.00 | 0.00 | 66 | 1013.7 |
| 20260903020554 | 88 | 278 | 1.7 | 3.5 | 0.00 | 0.00 | 0.00 | 65 | 1013.8 |
| 20260903020050 | 88 | 252 | 1.7 | 4.3 | 0.00 | 0.00 | 0.00 | 65 | 1014.0 |
| 20260903015549 | 88 | 233 | 0.9 | 4.3 | 0.00 | 0.00 | 0.00 | 65 | 1014.0 |
| 20260903015047 | 88 | 262 | 0.0 | 2.6 | 0.00 | 0.00 | 0.00 | 65 | 1014.0 |
| 20260903014549 | 88 | 257 | 0.9 | 3.5 | 0.00 | 0.00 | 0.00 | 65 | 1013.8 |
| 20260903014048 | 88 | 233 | 0.9 | 3.5 | 0.00 | 0.00 | 0.00 | 64 | 1013.8 |
| 20260903013547 | 89 | 210 | 0.9 | 4.3 | 0.00 | 0.00 | 0.00 | 64 | 1013.8 |
| 20260903013043 | 89 | 252 | 0.9 | 5.2 | 0.00 | 0.00 | 0.00 | 64 | 1013.7 |
| 20260903012545 | 89 | 278 | 0.9 | 5.2 | 0.00 | 0.00 | 0.00 | 64 | 1013.7 |
| 20260903012043 | 89 | 219 | 0.0 | 2.6 | 0.00 | 0.00 | 0.00 | 63 | 1013.7 |
| 20260903011543 | 89 | 145 | 0.9 | 4.3 | 0.00 | 0.00 | 0.00 | 63 | 1013.8 |
| 20260903011316 | 89 | 248 | 0.0 | 4.3 | 0.00 | 0.00 | 0.00 | 62 | 1013.8 |
| 20260903010543 | 89 | 169 | 0.9 | 3.5 | 0.00 | 0.00 | 0.00 | 62 | 1013.7 |
| 20260903010043 | 90 | 235 | 0.0 | 3.5 | 0.00 | 0.00 | 0.00 | 62 | 1013.6 |
| 20260903005544 | 90 | 259 | 0.9 | 6.1 | 0.00 | 0.00 | 0.00 | 61 | 1013.6 |
| 20260903005314 | 90 | 205 | 0.9 | 6.1 | 0.00 | 0.00 | 0.00 | 60 | 1013.5 |
| 20260903004539 | 90 | 250 | 0.9 | 4.3 | 0.00 | 0.00 | 0.00 | 60 | 1013.6 |
| 20260903004039 | 91 | 219 | 0.0 | 3.5 | 0.00 | 0.00 | 0.00 | 59 | 1013.5 |
| 20260903003539 | 91 | 214 | 0.9 | 3.5 | 0.00 | 0.00 | 0.00 | 58 | 1013.5 |
| 20260903003034 | 91 | 269 | 0.9 | 5.2 | 0.00 | 0.00 | 0.00 | 58 | 1013.4 |
| 20260903002528 | 91 | 217 | 0.9 | 5.2 | 0.00 | 0.00 | 0.00 | 58 | 1013.3 |
| 20260903002021 | 91 | 250 | 0.9 | 3.5 | 0.00 | 0.00 | 0.00 | 58 | 1013.3 |
| 20260903001515 | 92 | 243 | 0.9 | 3.5 | 0.00 | 0.00 | 0.00 | 57 | 1013.2 |
| 20260903001010 | 92 | 247 | 1.7 | 6.1 | 0.00 | 0.00 | 0.00 | 57 | 1013.1 |
| 20260903000503 | 92 | 266 | 3.5 | 8.7 | 0.00 | 0.00 | 0.00 | 57 | 1013.2 |
| 20260902235957 | 92 | 249 | 3.5 | 8.7 | 0.00 | 0.00 | 0.00 | 57 | 1013.3 |
| 20260902235723 | 92 | 255 | 3.5 | 8.7 | 0.00 | 0.00 | 0.00 | 56 | 1013.4 |
| 20260902235216 | 92 | 257 | 3.5 | 9.6 | 0.00 | 0.00 | 0.00 | 56 | 1013.4 |
| 20260902234439 | 92 | 290 | 5.2 | 11.3 | 0.00 | 0.00 | 0.00 | 56 | 1013.5 |
| 20260902234428 | 94 | 255 | 3.5 | 10.4 | 0.00 | 0.00 | 0.00 | 54 | 1013.6 |
| 20260902234423 | 93 | 223 | 2.6 | 7.0 | 0.00 | 0.00 | 0.00 | 55 | 1013.5 |
| 20260902234317 | 93 | 286 | 5.2 | 13.0 | 0.00 | 0.00 | 0.00 | 55 | 1013.5 |
| 20260902234208 | 93 | 252 | 4.3 | 13.0 | 0.00 | 0.00 | 0.00 | 55 | 1013.5 |
| 20260902234059 | 93 | 235 | 2.6 | 11.3 | 0.00 | 0.00 | 0.00 | 55 | 1013.6 |
| 20260902232140 | 94 | 255 | 3.5 | 10.4 | 0.00 | 0.00 | 0.00 | 54 | 1013.6 |
| 20260902231404 | 94 | 244 | 4.3 | 10.4 | 0.00 | 0.00 | 0.00 | 54 | 1013.6 |
| 20260902230858 | 93 | 267 | 4.3 | 12.2 | 0.00 | 0.00 | 0.00 | 54 | 1013.6 |
| 20260902230352 | 93 | 248 | 4.3 | 12.2 | 0.00 | 0.00 | 0.00 | 54 | 1013.5 |
| 20260902225845 | 93 | 281 | 4.3 | 14.8 | 0.00 | 0.00 | 0.00 | 53 | 1013.4 |
| 20260902225340 | 94 | 271 | 5.2 | 14.8 | 0.00 | 0.00 | 0.00 | 52 | 1013.2 |
| 20260902224834 | 94 | 275 | 4.3 | 15.6 | 0.00 | 0.00 | 0.00 | 52 | 1013.2 |
| 20260902224328 | 94 | 257 | 4.3 | 15.6 | 0.00 | 0.00 | 0.00 | 52 | 1013.2 |
| 20260902223822 | 94 | 178 | 4.3 | 11.3 | 0.00 | 0.00 | 0.00 | 52 | 1013.1 |
| 20260902223546 | 94 | 251 | 4.3 | 11.3 | 0.00 | 0.00 | 0.00 | 52 | 1013.2 |
| 20260902222810 | 95 | 238 | 5.2 | 12.2 | 0.00 | 0.00 | 0.00 | 52 | 1013.2 |
| 20260902222530 | 95 | 289 | 6.1 | 15.6 | 0.00 | 0.00 | 0.00 | 51 | 1013.1 |
| 20260902222405 | 95 | 240 | 5.2 | 12.2 | 0.00 | 0.00 | 0.00 | 51 | 1013.1 |
| 20260902221523 | 95 | 240 | 7.8 | 18.2 | 0.00 | 0.00 | 0.00 | 50 | 1013.2 |
| 20260902220746 | 95 | 233 | 7.8 | 18.2 | 0.00 | 0.00 | 0.00 | 49 | 1013.2 |
| 20260902220239 | 95 | 282 | 7.0 | 17.4 | 0.00 | 0.00 | 0.00 | 50 | 1013.1 |
| 20260902215734 | 95 | 295 | 7.0 | 15.6 | 0.00 | 0.00 | 0.00 | 50 | 1013.1 |
| 20260902215228 | 95 | 274 | 7.0 | 17.4 | 0.00 | 0.00 | 0.00 | 49 | 1013.2 |
| 20260902214721 | 95 | 262 | 7.0 | 17.4 | 0.00 | 0.00 | 0.00 | 49 | 1013.1 |
| 20260902214216 | 96 | 239 | 6.1 | 15.6 | 0.00 | 0.00 | 0.00 | 48 | 1013.2 |
| 20260902213710 | 96 | 275 | 7.8 | 16.5 | 0.00 | 0.00 | 0.00 | 49 | 1013.2 |
| 20260902213204 | 96 | 284 | 7.8 | 18.2 | 0.00 | 0.00 | 0.00 | 49 | 1013.2 |
| 20260902212658 | 96 | 266 | 6.1 | 18.2 | 0.00 | 0.00 | 0.00 | 48 | 1013.2 |
| 20260902212423 | 96 | 221 | 6.1 | 15.6 | 0.00 | 0.00 | 0.00 | 47 | 1013.2 |
| 20260902211916 | 96 | 252 | 5.2 | 15.6 | 0.00 | 0.00 | 0.00 | 47 | 1013.2 |
| 20260902211140 | 97 | 217 | 5.2 | 13.0 | 0.00 | 0.00 | 0.00 | 47 | 1013.2 |
| 20260902210634 | 97 | 260 | 4.3 | 13.0 | 0.00 | 0.00 | 0.00 | 47 | 1013.1 |
| 20260902210128 | 97 | 255 | 3.5 | 9.6 | 0.00 | 0.00 | 0.00 | 48 | 1013.2 |
| 20260902205622 | 97 | 231 | 4.3 | 12.2 | 0.00 | 0.00 | 0.00 | 48 | 1013.3 |
| 20260902205116 | 97 | 239 | 6.1 | 14.8 | 0.00 | 0.00 | 0.00 | 47 | 1013.3 |
| 20260902204840 | 97 | 297 | 7.8 | 14.8 | 0.00 | 0.00 | 0.00 | 46 | 1013.3 |
| 20260902204104 | 97 | 240 | 7.8 | 15.6 | 0.00 | 0.00 | 0.00 | 47 | 1013.5 |
| 20260902203557 | 97 | 263 | 6.1 | 15.6 | 0.00 | 0.00 | 0.00 | 46 | 1013.4 |
| 20260902203052 | 97 | 215 | 5.2 | 20.9 | 0.00 | 0.00 | 0.00 | 46 | 1013.4 |
| 20260902202546 | 97 | 231 | 6.1 | 17.4 | 0.00 | 0.00 | 0.00 | 46 | 1013.5 |
| 20260902202041 | 96 | 219 | 6.1 | 14.8 | 0.00 | 0.00 | 0.00 | 48 | 1013.5 |
| 20260902201533 | 96 | 256 | 5.2 | 14.8 | 0.00 | 0.00 | 0.00 | 47 | 1013.5 |
| 20260902201027 | 96 | 297 | 5.2 | 12.2 | 0.00 | 0.00 | 0.00 | 47 | 1013.6 |
| 20260902200522 | 97 | 241 | 4.3 | 11.3 | 0.00 | 0.00 | 0.00 | 47 | 1013.6 |
| 20260902200246 | 97 | 283 | 4.3 | 14.8 | 0.00 | 0.00 | 0.00 | 45 | 1013.7 |
| 20260902195510 | 98 | 301 | 4.3 | 14.8 | 0.00 | 0.00 | 0.00 | 45 | 1013.8 |
| 20260902195004 | 98 | 175 | 4.3 | 14.8 | 0.00 | 0.00 | 0.00 | 47 | 1013.8 |
| 20260902194457 | 97 | 253 | 6.1 | 15.6 | 0.00 | 0.00 | 0.00 | 48 | 1013.8 |
| 20260902193952 | 96 | 254 | 6.1 | 15.6 | 0.00 | 0.00 | 0.00 | 47 | 1014.1 |
| 20260902193716 | 97 | 297 | 6.1 | 14.8 | 0.00 | 0.00 | 0.00 | 48 | 1014.1 |
| 20260902192940 | 97 | 243 | 5.2 | 14.8 | 0.00 | 0.00 | 0.00 | 46 | 1014.0 |
| 20260902192434 | 98 | 259 | 4.3 | 10.4 | 0.00 | 0.00 | 0.00 | 47 | 1014.2 |
| 20260902191928 | 98 | 232 | 4.3 | 13.0 | 0.00 | 0.00 | 0.00 | 47 | 1014.3 |
| 20260902191422 | 98 | 224 | 5.2 | 13.0 | 0.00 | 0.00 | 0.00 | 48 | 1014.2 |
| 20260902190915 | 97 | 221 | 5.2 | 13.0 | 0.00 | 0.00 | 0.00 | 48 | 1014.2 |
| 20260902190410 | 97 | 219 | 3.5 | 17.4 | 0.00 | 0.00 | 0.00 | 48 | 1014.4 |
| 20260902185904 | 98 | 229 | 3.5 | 17.4 | 0.00 | 0.00 | 0.00 | 48 | 1014.4 |
| 20260902185358 | 97 | 170 | 3.5 | 8.7 | 0.00 | 0.00 | 0.00 | 49 | 1014.3 |
| 20260902184852 | 97 | 266 | 3.5 | 8.7 | 0.00 | 0.00 | 0.00 | 49 | 1014.3 |
| 20260902184345 | 97 | 238 | 3.5 | 8.7 | 0.00 | 0.00 | 0.00 | 52 | 1014.3 |
| 20260902183840 | 97 | 300 | 3.5 | 8.7 | 0.00 | 0.00 | 0.00 | 50 | 1014.3 |
| 20260902183334 | 96 | 274 | 5.2 | 13.9 | 0.00 | 0.00 | 0.00 | 52 | 1014.4 |
| 20260902182828 | 96 | 188 | 6.1 | 14.8 | 0.00 | 0.00 | 0.00 | 51 | 1014.6 |
| 20260902182322 | 96 | 255 | 5.2 | 13.9 | 0.00 | 0.00 | 0.00 | 51 | 1014.6 |
| 20260902181816 | 95 | 295 | 4.3 | 13.9 | 0.00 | 0.00 | 0.00 | 52 | 1014.7 |
| 20260902181309 | 96 | 263 | 2.6 | 13.9 | 0.00 | 0.00 | 0.00 | 53 | 1014.8 |
| 20260902180804 | 95 | 256 | 3.5 | 12.2 | 0.00 | 0.00 | 0.00 | 55 | 1014.8 |
| 20260902180258 | 94 | 279 | 4.3 | 12.2 | 0.00 | 0.00 | 0.00 | 56 | 1014.9 |
| 20260902175751 | 94 | 250 | 4.3 | 9.6 | 0.00 | 0.00 | 0.00 | 56 | 1015.0 |
| 20260902175246 | 93 | 293 | 5.2 | 9.6 | 0.00 | 0.00 | 0.00 | 56 | 1015.1 |
| 20260902174741 | 94 | 236 | 4.3 | 13.0 | 0.00 | 0.00 | 0.00 | 55 | 1015.1 |
| 20260902174735 | 94 | 303 | 4.3 | 13.0 | 0.00 | 0.00 | 0.00 | 55 | 1015.1 |
| 20260902173728 | 95 | 303 | 4.3 | 13.0 | 0.00 | 0.00 | 0.00 | 54 | 1015.2 |
| 20260902173222 | 95 | 247 | 7.0 | 14.8 | 0.00 | 0.00 | 0.00 | 53 | 1015.3 |
| 20260902172716 | 95 | 255 | 6.1 | 14.8 | 0.00 | 0.00 | 0.00 | 51 | 1015.4 |
| 20260902172210 | 96 | 315 | 5.2 | 11.3 | 0.00 | 0.00 | 0.00 | 54 | 1015.4 |
| 20260902171704 | 96 | 286 | 5.2 | 10.4 | 0.00 | 0.00 | 0.00 | 54 | 1015.4 |
| 20260902171157 | 96 | 252 | 4.3 | 11.3 | 0.00 | 0.00 | 0.00 | 53 | 1015.6 |
| 20260902170651 | 95 | 238 | 4.3 | 12.2 | 0.00 | 0.00 | 0.00 | 53 | 1015.6 |
| 20260902170145 | 95 | 240 | 3.5 | 12.2 | 0.00 | 0.00 | 0.00 | 52 | 1015.6 |
| 20260902165640 | 95 | 252 | 2.6 | 7.8 | 0.00 | 0.00 | 0.00 | 56 | 1015.7 |
| 20260902165135 | 95 | 231 | 3.5 | 11.3 | 0.00 | 0.00 | 0.00 | 56 | 1015.7 |
| 20260902164635 | 94 | 83 | 4.3 | 11.3 | 0.00 | 0.00 | 0.00 | 55 | 1015.7 |
| 20260902164136 | 95 | 253 | 3.5 | 10.4 | 0.00 | 0.00 | 0.00 | 55 | 1015.8 |
| 20260902163908 | 94 | 238 | 3.5 | 9.6 | 0.00 | 0.00 | 0.00 | 56 | 1015.8 |
| 20260902163406 | 95 | 250 | 2.6 | 9.6 | 0.00 | 0.00 | 0.00 | 55 | 1015.8 |
| 20260902162632 | 95 | 236 | 2.6 | 9.6 | 0.00 | 0.00 | 0.00 | 57 | 1015.9 |
| 20260902162133 | 95 | 269 | 1.7 | 9.6 | 0.00 | 0.00 | 0.00 | 56 | 1016.0 |
| 20260902161633 | 95 | 254 | 1.7 | 7.0 | 0.00 | 0.00 | 0.00 | 57 | 1016.0 |
| 20260902161132 | 94 | 211 | 2.6 | 7.0 | 0.00 | 0.00 | 0.00 | 57 | 1016.0 |
| 20260902160634 | 94 | 236 | 2.6 | 8.7 | 0.00 | 0.00 | 0.00 | 58 | 1016.1 |
| 20260902160133 | 94 | 252 | 1.7 | 8.7 | 0.00 | 0.00 | 0.00 | 57 | 1016.1 |
| 20260902155632 | 94 | 197 | 3.5 | 9.6 | 0.00 | 0.00 | 0.00 | 60 | 1016.1 |
| 20260902155133 | 93 | 291 | 4.3 | 9.6 | 0.00 | 0.00 | 0.00 | 58 | 1016.0 |
| 20260902154633 | 93 | 250 | 4.3 | 9.6 | 0.00 | 0.00 | 0.00 | 58 | 1016.0 |
| 20260902154133 | 92 | 252 | 3.5 | 9.6 | 0.00 | 0.00 | 0.00 | 58 | 1016.2 |
| 20260902153634 | 92 | 233 | 2.6 | 8.7 | 0.00 | 0.00 | 0.00 | 60 | 1016.1 |
| 20260902153128 | 92 | 241 | 2.6 | 9.6 | 0.00 | 0.00 | 0.00 | 61 | 1016.1 |
| 20260902152621 | 91 | 282 | 3.5 | 9.6 | 0.00 | 0.00 | 0.00 | 62 | 1016.1 |
| 20260902152351 | 91 | 236 | 3.5 | 9.6 | 0.00 | 0.00 | 0.00 | 62 | 1016.0 |
| 20260902151620 | 91 | 222 | 2.6 | 9.6 | 0.00 | 0.00 | 0.00 | 62 | 1016.0 |
| 20260902151121 | 91 | 224 | 3.5 | 10.4 | 0.00 | 0.00 | 0.00 | 63 | 1016.1 |
| 20260902150622 | 90 | 319 | 2.6 | 10.4 | 0.00 | 0.00 | 0.00 | 62 | 1016.0 |
| 20260902150122 | 90 | 278 | 2.6 | 6.1 | 0.00 | 0.00 | 0.00 | 64 | 1016.1 |
| 20260902145620 | 89 | 344 | 2.6 | 8.7 | 0.00 | 0.00 | 0.00 | 65 | 1016.0 |
| 20260902145121 | 89 | 271 | 2.6 | 8.7 | 0.00 | 0.00 | 0.00 | 65 | 1016.0 |
| 20260902144621 | 89 | 150 | 2.6 | 7.8 | 0.00 | 0.00 | 0.00 | 66 | 1016.0 |
| 20260902144123 | 88 | 235 | 2.6 | 7.8 | 0.00 | 0.00 | 0.00 | 66 | 1016.1 |
| 20260902143725 | 88 | 316 | 1.7 | 7.0 | 0.00 | 0.00 | 0.00 | 67 | 1016.0 |
| 20260902143624 | 88 | 261 | 1.7 | 7.0 | 0.00 | 0.00 | 0.00 | 68 | 1016.0 |
| 20260902143358 | 87 | 302 | 2.6 | 6.1 | 0.00 | 0.00 | 0.00 | 69 | 1016.2 |
| 20260902143353 | 86 | 276 | 1.7 | 6.1 | 0.00 | 0.00 | 0.00 | 73 | 1015.9 |
| 20260902142905 | 87 | 226 | 2.6 | 6.1 | 0.00 | 0.00 | 0.00 | 70 | 1016.1 |
| 20260902142800 | 86 | 283 | 1.7 | 6.1 | 0.00 | 0.00 | 0.00 | 72 | 1016.0 |
| 20260902141121 | 86 | 276 | 1.7 | 6.1 | 0.00 | 0.00 | 0.00 | 73 | 1015.9 |
| 20260902140618 | 85 | 283 | 1.7 | 6.1 | 0.00 | 0.00 | 0.00 | 74 | 1016.0 |
| 20260902140350 | 85 | 272 | 1.7 | 6.1 | 0.00 | 0.00 | 0.00 | 74 | 1016.0 |
| 20260902135849 | 84 | 222 | 1.7 | 6.1 | 0.00 | 0.00 | 0.00 | 75 | 1016.1 |
| 20260902135119 | 84 | 243 | 2.6 | 6.1 | 0.00 | 0.00 | 0.00 | 76 | 1016.3 |
| 20260902134619 | 83 | 303 | 3.5 | 7.8 | 0.00 | 0.00 | 0.00 | 76 | 1016.2 |
| 20260902134120 | 83 | 295 | 3.5 | 7.8 | 0.00 | 0.00 | 0.00 | 77 | 1016.3 |
| 20260902133614 | 83 | 267 | 3.5 | 7.0 | 0.00 | 0.00 | 0.00 | 77 | 1016.3 |
| 20260902133115 | 82 | 278 | 3.5 | 7.8 | 0.00 | 0.00 | 0.00 | 77 | 1016.3 |
| 20260902132616 | 82 | 281 | 2.6 | 7.8 | 0.00 | 0.00 | 0.00 | 77 | 1016.3 |
| 20260902132346 | 82 | 283 | 1.7 | 7.8 | 0.00 | 0.00 | 0.00 | 78 | 1016.3 |
| 20260902131615 | 82 | 241 | 2.6 | 7.8 | 0.00 | 0.00 | 0.00 | 78 | 1016.2 |
| 20260902131115 | 82 | 244 | 1.7 | 7.0 | 0.00 | 0.00 | 0.00 | 79 | 1016.2 |
| 20260902130616 | 81 | 231 | 1.7 | 4.3 | 0.00 | 0.00 | 0.00 | 80 | 1016.1 |
| 20260902130115 | 81 | 255 | 1.7 | 4.3 | 0.00 | 0.00 | 0.00 | 80 | 1016.0 |
| 20260902125616 | 80 | 243 | 0.9 | 4.3 | 0.00 | 0.00 | 0.00 | 80 | 1016.0 |
| 20260902125346 | 80 | 250 | 0.9 | 3.5 | 0.00 | 0.00 | 0.00 | 82 | 1016.1 |
| 20260902124615 | 80 | 246 | 0.9 | 5.2 | 0.00 | 0.00 | 0.00 | 82 | 1016.0 |
| 20260902124115 | 79 | 255 | 0.9 | 5.2 | 0.00 | 0.00 | 0.00 | 82 | 1016.0 |
| 20260902123615 | 79 | 202 | 0.9 | 4.3 | 0.00 | 0.00 | 0.00 | 83 | 1016.0 |
| 20260902123114 | 79 | 243 | 0.9 | 4.3 | 0.00 | 0.00 | 0.00 | 83 | 1016.0 |
| 20260902122847 | 79 | 229 | 0.9 | 4.3 | 0.00 | 0.00 | 0.00 | 84 | 1016.0 |
| 20260902122115 | 78 | 235 | 0.9 | 4.3 | 0.00 | 0.00 | 0.00 | 84 | 1016.0 |
| 20260902121615 | 78 | 243 | 0.9 | 4.3 | 0.00 | 0.00 | 0.00 | 84 | 1016.1 |
| 20260902121115 | 78 | 239 | 0.9 | 5.2 | 0.00 | 0.00 | 0.00 | 85 | 1016.1 |
| 20260902120614 | 78 | 215 | 0.9 | 5.2 | 0.00 | 0.00 | 0.00 | 85 | 1016.0 |
| 20260902120116 | 77 | 238 | 0.9 | 4.3 | 0.00 | 0.00 | 0.00 | 85 | 1015.9 |
| 20260902115615 | 77 | 233 | 0.9 | 2.6 | 0.00 | 0.00 | 0.00 | 85 | 1016.0 |
| 20260902115114 | 77 | 252 | 0.9 | 5.2 | 0.00 | 0.00 | 0.00 | 85 | 1015.9 |
| 20260902114622 | 77 | 226 | 0.9 | 5.2 | 0.00 | 0.00 | 0.00 | 85 | 1015.9 |
| 20260902114614 | 77 | 274 | 0.9 | 5.2 | 0.00 | 0.00 | 0.00 | 85 | 1016.0 |
| 20260902113615 | 77 | 239 | 0.9 | 5.2 | 0.00 | 0.00 | 0.00 | 86 | 1016.0 |
| 20260902113116 | 77 | 248 | 0.0 | 3.5 | 0.00 | 0.00 | 0.00 | 86 | 1016.0 |
| 20260902112611 | 77 | 266 | 0.9 | 3.5 | 0.00 | 0.00 | 0.00 | 86 | 1016.0 |
| 20260902112112 | 77 | 248 | 0.9 | 4.3 | 0.00 | 0.00 | 0.00 | 86 | 1016.1 |
| 20260902111846 | 77 | 268 | 0.9 | 4.3 | 0.00 | 0.00 | 0.00 | 86 | 1016.3 |
| 20260902111110 | 77 | 257 | 0.9 | 3.5 | 0.00 | 0.00 | 0.00 | 86 | 1016.4 |
| 20260902110612 | 77 | 240 | 0.9 | 2.6 | 0.00 | 0.00 | 0.00 | 86 | 1016.2 |
| 20260902110111 | 77 | 270 | 0.0 | 2.6 | 0.00 | 0.00 | 0.00 | 86 | 1016.2 |
| 20260902105846 | 77 | 247 | 0.9 | 4.3 | 0.00 | 0.00 | 0.00 | 85 | 1015.9 |
| 20260902105611 | 77 | 301 | 0.9 | 3.5 | 0.00 | 0.00 | 0.00 | 85 | 1016.2 |
| 20260902104611 | 77 | 234 | 0.0 | 4.3 | 0.00 | 0.00 | 0.00 | 85 | 1015.8 |
| 20260902104606 | 78 | 229 | 0.9 | 2.6 | 0.00 | 0.00 | 0.00 | 85 | 1016.0 |
| 20260902103557 | 78 | 259 | 0.9 | 5.2 | 0.00 | 0.00 | 0.00 | 84 | 1015.9 |
| 20260902103050 | 78 | 232 | 0.9 | 5.2 | 0.00 | 0.00 | 0.00 | 84 | 1016.0 |
| 20260902102551 | 78 | 276 | 0.9 | 4.3 | 0.00 | 0.00 | 0.00 | 84 | 1015.9 |
| 20260902102051 | 78 | 220 | 0.9 | 4.3 | 0.00 | 0.00 | 0.00 | 84 | 1015.9 |
| 20260902101551 | 78 | 229 | 0.0 | 2.6 | 0.00 | 0.00 | 0.00 | 84 | 1015.8 |
| 20260902101055 | 78 | 265 | 0.0 | 1.7 | 0.00 | 0.00 | 0.00 | 85 | 1015.8 |
| 20260902101050 | 78 | 231 | 0.0 | 1.7 | 0.00 | 0.00 | 0.00 | 85 | 1015.8 |
| 20260902100058 | 78 | 259 | 0.9 | 5.2 | 0.00 | 0.00 | 0.00 | 85 | 1015.8 |
| 20260902100051 | 78 | 210 | 0.0 | 3.5 | 0.00 | 0.00 | 0.00 | 85 | 1015.7 |
| 20260902095050 | 78 | 228 | 0.9 | 5.2 | 0.00 | 0.00 | 0.00 | 85 | 1015.7 |
| 20260902094550 | 78 | 198 | 0.9 | 5.2 | 0.00 | 0.00 | 0.00 | 85 | 1015.7 |
| 20260902094047 | 78 | 245 | 0.9 | 5.2 | 0.00 | 0.00 | 0.00 | 85 | 1015.7 |
| 20260902093818 | 78 | 255 | 0.0 | 2.6 | 0.00 | 0.00 | 0.00 | 85 | 1015.8 |
| 20260902093046 | 78 | 105 | 0.0 | 3.5 | 0.00 | 0.00 | 0.00 | 84 | 1015.8 |
| 20260902092817 | 78 | 186 | 0.9 | 6.1 | 0.00 | 0.00 | 0.00 | 84 | 1015.9 |
| 20260902092043 | 78 | 224 | 1.7 | 6.1 | 0.00 | 0.00 | 0.00 | 84 | 1015.8 |
| 20260902091543 | 78 | 271 | 0.9 | 3.5 | 0.00 | 0.00 | 0.00 | 84 | 1015.9 |
| 20260902091044 | 78 | 182 | 0.9 | 3.5 | 0.00 | 0.00 | 0.00 | 84 | 1015.8 |
| 20260902090542 | 78 | 264 | 0.9 | 3.5 | 0.00 | 0.00 | 0.00 | 84 | 1015.8 |
| 20260902090036 | 78 | 252 | 0.9 | 4.3 | 0.00 | 0.00 | 0.00 | 84 | 1015.8 |
| 20260902085529 | 78 | 201 | 1.7 | 4.3 | 0.00 | 0.00 | 0.00 | 84 | 1015.7 |
| 20260902085023 | 78 | 223 | 0.9 | 4.3 | 0.00 | 0.00 | 0.00 | 84 | 1015.6 |
| 20260902084517 | 78 | 172 | 0.0 | 2.6 | 0.00 | 0.00 | 0.00 | 84 | 1015.6 |
| 20260902084011 | 78 | 266 | 0.0 | 0.9 | 0.00 | 0.00 | 0.00 | 83 | 1015.7 |
| 20260902083505 | 78 | 183 | 0.0 | 0.9 | 0.00 | 0.00 | 0.00 | 83 | 1015.7 |
| 20260902082959 | 78 | 191 | 0.0 | 0.9 | 0.00 | 0.00 | 0.00 | 83 | 1015.8 |
| 20260902082453 | 78 | 153 | 0.0 | 0.9 | 0.00 | 0.00 | 0.00 | 83 | 1015.6 |
| 20260902081948 | 78 | 226 | 0.0 | 3.5 | 0.00 | 0.00 | 0.00 | 83 | 1015.7 |
| 20260902081943 | 78 | 250 | 0.0 | 3.5 | 0.00 | 0.00 | 0.00 | 83 | 1015.6 |
| 20260902080935 | 78 | 250 | 0.0 | 0.9 | 0.00 | 0.00 | 0.00 | 83 | 1015.4 |
| 20260902080429 | 78 | 228 | 0.0 | 0.9 | 0.00 | 0.00 | 0.00 | 82 | 1015.2 |
| 20260902075923 | 78 | 157 | 0.0 | 0.9 | 0.00 | 0.00 | 0.00 | 82 | 1015.2 |
| 20260902075417 | 78 | 167 | 0.0 | 0.9 | 0.00 | 0.00 | 0.00 | 82 | 1015.2 |
| 20260902074911 | 78 | 136 | 0.0 | 0.9 | 0.00 | 0.00 | 0.00 | 82 | 1015.3 |
| 20260902074405 | 78 | 174 | 0.0 | 0.9 | 0.00 | 0.00 | 0.00 | 82 | 1015.4 |
| 20260902073859 | 78 | 205 | 0.0 | 0.9 | 0.00 | 0.00 | 0.00 | 82 | 1015.6 |